Home   Weather   Springfield   Past weeks

Flag for USA Past Weather in Springfield, Missouri, USA — Yesterday and Last 2 Weeks

Now
70 °F

Clear.


Feels Like: 68 °F
Forecast: 63 / 83 °F
Wind: 3 mph from Northwest

Location: Springfield Regional Airport

Current Time: Sep 25, 2016 at 5:37:53 AM

Latest Report: Sep 25, 2016 at 4:52 AM


Visibility: 10 mi

Pressure: 30.02 "Hg

Humidity: 87%

Dew Point: 66 °F

Location of SpringfieldLocation

Past Weather in Springfield — Graph

°F

Springfield Temperature Yesterday

Maximum temperature yesterday: 90 °F (at 2:52 PM)
Minimum temperature yesterday: 69 °F (at 6:52 AM)
Average temperature yesterday: 79 °F

High & Low Weather Summary for the Past Weeks

 TemperatureHumidityPressure
High92 °F (Sep 20, 1:52 PM)97% (Sep 17, 3:59 AM)30.23 "Hg (Sep 17, 3:59 AM)
Low53 °F (Sep 11, 4:52 AM)35% (Sep 11, 4:52 PM)29.90 "Hg (Sep 16, 7:52 PM)
Average74 °F72%30.04 "Hg
* Reported Sep 10 3:52 AM — Sep 25 3:52 AM, Springfield, Weather by CustomWeather, © 2016

Note: Actual official high and low records may vary slightly from our data, if they occured in-between our weather recording intervals... More about our weather records

Advertising

Springfield Weather History for the Previous 24 Hours

Scroll right to see more
 ConditionsComfort  
Time TempWeatherWind HumidityBarometerVisibility
3:52 AM
Sun, Sep 25
72 °FClear.No wind81%30.01 "Hg10 mi
2:52 AM71 °FClear.3 mph84%30.01 "Hg10 mi
1:52 AM72 °FClear.8 mph81%30.01 "Hg10 mi
12:52 AM73 °FClear.8 mph79%30.00 "Hg10 mi
11:52 PM
Sat, Sep 24
76 °FClear.8 mph72%29.99 "Hg10 mi
10:52 PM76 °FClear.8 mph74%30.00 "Hg10 mi
9:52 PM78 °FPassing clouds.8 mph69%30.00 "Hg10 mi
8:52 PM78 °FClear.7 mph66%29.99 "Hg10 mi
7:52 PM81 °FClear.8 mph60%29.96 "Hg10 mi
6:52 PM83 °FSunny.12 mph57%29.93 "Hg10 mi
5:52 PM87 °FSunny.18 mph48%29.94 "Hg10 mi
4:52 PM86 °FScattered clouds.9 mph48%29.95 "Hg10 mi
3:52 PM89 °FPassing clouds.13 mph43%29.96 "Hg10 mi
2:52 PM90 °FScattered clouds.7 mph43%29.98 "Hg10 mi
1:52 PM87 °FScattered clouds.7 mph48%30.01 "Hg10 mi
12:52 PM88 °FPassing clouds.7 mph50%30.03 "Hg10 mi
11:52 AM86 °FSunny.9 mph57%30.05 "Hg10 mi
10:52 AM83 °FSunny.9 mph63%30.05 "Hg10 mi
9:52 AM80 °FSunny.9 mph69%30.06 "Hg10 mi
8:52 AM76 °FSunny.10 mph74%30.06 "Hg10 mi
7:52 AM72 °FSunny.10 mph81%30.06 "Hg10 mi
6:52 AM69 °FClear.8 mph84%30.04 "Hg10 mi
5:52 AM71 °FClear.8 mph78%30.03 "Hg10 mi
Weather by CustomWeather, © 2016

See weather overviewHow to use our weather pages